Regional Weather Roundup
Issued by NWS

Home | Current Version | Previous Version | Graphics & Text | Print | Product List | Glossary On
Versions: 1 2 3 4 5 6 7 8 9 10 11 12 13 14 15 16 17 18 19 20 21 22 23 24 25 26 27 28 29 30 31 32 33 34 35 36 37 38 39 40 41 42 43 44 45 46 47 48 49 50
000
ASUS45 KTFX 250319
RWRMT
MONTANA HOURLY WEATHER ROUNDUP
NATIONAL WEATHER SERVICE GREAT FALLS MT
919 PM MDT FRI OCT 24 2014

NOTE: "FAIR" INDICATES FEW OR NO CLOUDS BELOW 12000 FEET WITH NO
SIGNIFICANT WEATHER AND/OR OBSTRUCTIONS TO VISIBILITY.

* THESE STATIONS ARE NOT UNDER NWS QUALITY CONTROL. THEY DO NOT
   REPORT WEATHER SUCH AS PRECIPITATION OR FOG.

MTZ001>007-043-250400-
WEST OF THE DIVIDE
CITY           SKY/WX    TMP DP  RH WIND       PRES   REMARKS
KALISPELL      CLOUDY    43  39  86 NW3       30.07S
MISSOULA       LGT RAIN  46  46 100 NW5       30.09F
BUTTE          PTCLDY    43  41  93 CALM      30.11S
MULLAN PASS    LGT RAIN  36  36 100 SE10G18   30.05F VSB 1 1/4 WCI  29
* ESSEX        N/A       40  38  93 N/A        N/A
* LINCOLN      N/A       43  41  93 N/A        N/A
* LOOKOUT PASS N/A       41  39  93 S7         N/A
* POLSON       N/A       44  36  74 N/A        N/A
* RONAN APT    CLOUDY    46  41  83 N/A        N/A
* SEELEY LAKE  N/A       43  41  93 N/A        N/A
* THOMP F APT  CLOUDY    48  22  36 NE4        N/A
$$

MTZ008-052>055-250400-
SOUTHWEST MONTANA
CITY           SKY/WX    TMP DP  RH WIND       PRES   REMARKS
BOZEMAN        MOCLDY    43  39  86 CALM      30.10R
DILLON         PTCLDY    41  39  93 SE6       30.09S
W YELLOWSTONE  CLEAR     36  27  70 CALM      30.18R
* THREE FORKS  MOCLDY    45  -6  11 N/A        N/A
* BOULDER HILL N/A       43  36  76 N1         N/A
* MONIDA PASS  N/A       45  26  47 S9         N/A
* RAYNOLDS PAS N/A       44  24  45 SE4        N/A
* WHITEHALL    N/A       47  42  83 E3         N/A
* WISE RIVER   N/A       40  38  93 SW3        N/A
$$

MTZ009>010-012-014-046-048-049-054-250400-
EAST SLOPES AND CENTRAL MONTANA
CITY           SKY/WX    TMP DP  RH WIND       PRES   REMARKS
CUT BANK       CLOUDY    45  32  60 W5        30.05S
GREAT FALLS    CLOUDY    46  37  71 CALM      30.06F
HELENA         CLOUDY    50  43  77 W3        30.08S
MALMSTROM AFB  CLOUDY    48  36  63 VRB1      30.09S
* CONRAD       CLOUDY    45  36  71 NE5        N/A
* DEARBORN     N/A       50  42  74 NE2        N/A
* EAST GLACIER N/A       42  31  65 W13        N/A
* MONARCH      N/A       45  33  63 S7         N/A
* PENDROY      N/A       43  33  68 S7         N/A
* SAINT MARY   N/A       41  30  65 S4G12      N/A
* SWEET GRASS  N/A       46  28  50 W6         N/A
* WHITE SULPH  N/A       47  39  74 E5         N/A
$$

MTZ011-013-016-021-035-040-045-047-050-051-250400-
NORTH CENTRAL MONTANA
CITY           SKY/WX    TMP DP  RH WIND       PRES   REMARKS
HAVRE          MOCLDY    43  30  60 SW8       30.07R
LEWISTOWN      LGT RAIN  46  43  89 SE5       30.11R
* CHINOOK      MOCLDY    43  30  60 CALM      30.07R
* FORT BENTON  CLOUDY    48  36  63 CALM      30.09R
* CHESTER      N/A       45  29  54 N1         N/A
* DENTON       N/A       49  34  56 N4         N/A
* JUDITH GAP   N/A       49  38  66 NW11       N/A
* LOMA         N/A       51  33  50 NE2        N/A
$$

MTZ017>020-022>027-061-062-250400-
NORTHEAST MONTANA
CITY           SKY/WX    TMP DP  RH WIND       PRES   REMARKS
GLASGOW        PTCLDY    41  28  60 SE3       30.05R
GLENDIVE       PTCLDY    46  30  54 NW7       30.10R
JORDAN         CLOUDY    43  32  65 CALM      30.08R
SIDNEY         PTCLDY    45  28  51 CALM      30.09R
WOLF POINT     PTCLDY    41  28  60 SW6       30.06R
* BEAVER HILL  N/A       49  30  48 W1G8       N/A
* CIRCLE       N/A       44  31  60 N/A        N/A
* LINDSAY DVD  N/A       46  29  52 NW9        N/A
* NAVAJO       N/A       38  25  60 W9         N/A   WCI  32
$$

MTZ028>042-056>058-250400-
SOUTHCENTRAL AND SOUTHEAST MONTANA
CITY           SKY/WX    TMP DP  RH WIND       PRES   REMARKS
BAKER          MOCLDY    45  28  51 W8        30.10R
BILLINGS       MOCLDY    52  36  55 N5        30.10R
LIVINGSTON     PTCLDY    45  37  74 SE3       30.08S
MILES CITY     CLOUDY    52  34  50 SW7       30.09R
* LAUREL APT   MOCLDY    52  34  50 N/A        N/A
* ROUNDUP APT  CLOUDY    50  37  61 N/A        N/A
* ALZADA       N/A       53  28  38 NW4        N/A
* LAME DEER    N/A       49  29  46 E4         N/A
* REED POINT   N/A       46  41  83 N/A        N/A
* ROSCOE HILL  N/A       46  33  61 SE6        N/A
$$

REGIONAL REPORTS...DAKOTAS
CITY           SKY/WX    TMP DP  RH WIND       PRES   REMARKS
WILLISTON      CLEAR     45  27  49 W12       30.03R
DICKINSON      MOCLDY    46  30  54 W7        30.05R
BEACH          N/A       46  32  58 W7        30.09R
CROSBY         CLEAR     45  28  51 W12       30.00R
TIOGA          CLEAR     37  28  70 W10       30.04R WCI  30
BISMARCK       PTCLDY    48  34  59 W7        30.03R
GRAND FORKS    PTCLDY    52  36  55 W8        29.87R
FARGO          PTCLDY    54  34  47 W8        29.90R
BUFFALO SD     CLOUDY    54  30  40 W7        30.03S
RAPID CITY     CLEAR     46  36  68 NW10      30.11R
$$

REGIONAL REPORTS...WYOMING/IDAHO/WASHINGTON
CITY           SKY/WX    TMP DP  RH WIND       PRES   REMARKS
GILLETTE       PTCLDY    39  30  70 NW3       30.12R
SHERIDAN       PTCLDY    41  32  70 CALM      30.12R
CODY           PTCLDY    45  32  60 S3        30.12R
YELLOWSTONE LA CLEAR     34  25  70 NW3       30.28R
SALMON         CLEAR     41  37  86 CALM      30.09R
MULLAN PASS    LGT RAIN  36  36 100 SE10G18   30.05S VSB 1 1/4 WCI  29
SAND POINT     CLOUDY    46  41  83 NE9       30.04S
SPOKANE        CLOUDY    52  43  72 E7        29.99F
$$

REGIONAL REPORTS...ALBERTA
CITY           SKY/WX    TMP DP  RH WIND       PRES   REMARKS
CALGARY        MOCLDY    45  14  28 W12G18    30.00R
LETHBRIDGE     CLOUDY    46  27  48 W13G20    30.04R
MEDICINE HAT   MOCLDY    43  27  53 S5        30.02R
EDMONTON       FAIR      28  18  66 SW6       29.95R WCI  21
WATERTON GATE  N/A       43  28  56 SW9G17     N/A
CARDSTON       N/A       37  30  76 S7         N/A   WCI  32
MILK RIVER     N/A       39  30  70 S7         N/A   WCI  34
$$

REGIONAL REPORTS...SASKATCHEWAN
CITY           SKY/WX    TMP DP  RH WIND       PRES   REMARKS
SWIFT CURRENT  CLEAR     36  28  73 SW10      30.00R WCI  29
REGINA         FAIR      36  32  85 W10       29.97R WCI  29
VAL MARIE      N/A       34  27  76 W7         N/A   WCI  28
ASSINIBOIA     N/A       36  27  70 W7         N/A   WCI  30

$$




USA.gov is the U.S. government's official web portal to all federal, state and local government web resources and services.